STARLINK-1301, 45361

Orbit data source: Space-Track

STARLINK-1301, 45361 is a payload satellite owned by SpaceX/Seattle (US) in LEO that was launched on Wed, 18 Mar 2020 UTC via an FALCON 9 launch vehicle from the Air Force Eastern Test Range (AFETR). Payload-class satellites include a variety of spacecraft equipped with specific instruments for various scientific and technological missions. These include communications satellites like Starlink; space stations such as the ISS; scientific satellites like the Hubble; Earth observation satellites from companies like Planet Labs, Umbra, and HawkEye 360; GPS; miniature CubeSats for education and research; and military/defense satellites.

Loading next visibility...
Identifier
45361, 2020-019B
Orbit
LEO
Country
Flag of USUS
Related business
Manufacturer
SpaceX/Seattle
Mission
Partially operational Commercial Communications
Bus & Motor
STARLINK, Unknown motor
Mass
260 kg wet, ~248 kg dry
Launch date (UTC)
2020-03-18 (6 years ago)
Launch vehicle
FALCON 9
Launch site
Air Force Eastern Test Range (AFETR)
Object type
Payload
Rocket body
Debris
Shape & HBR
Box + 1 Pan, 10.1 m
Radar Cross Section
13.562 m², Large (>1 m²)

Expand to show TLE details & history
Last TLE update: 8 hours ago

TLE from 8 hours ago
0 STARLINK-1301
1 45361U 20019B   25353.91668981  .00095615  00000-0  19421-2 0  9992
2 45361  53.0482 129.8593 0004863 197.3290 227.2143 15.45560544  5951
Epoch: 2025-12-19T22:00Z
TLE epoch observation values (Epoch: 2025-12-19T22:00:01.999Z)
Latitude
46.30724°
Longitude
122.63546°
Altitude
436.943 km
Speed
7.654 km/s
True Right ascension
12h 05m 34s
True Declination
46° 07' 38"
Sunlit
Object was in daylight at epoch
Visualization orbit readout
Latitude
Unknown
Longitude
Unknown
Altitude
Unknown
Speed
Unknown
Apparent Right ascension
Unknown
Apparent Declination
Unknown
Sunlit
N/A
Visualization observer readout
Local Sidereal Time
04:57:19
Azimuth
Unknown
Elevation
Unknown
Doppler factor
Unknown
Orbital elements
Apogee altitude
433.319 km
Perigee altitude
426.697 km
Semi-major axis
6,808.145 km
Eccentricity
0.00049
Inclination
53.0482°
RAAN
129.8593°
Arg. of periapsis
197.329°
True anomaly
227.17342°
Mean anomaly
227.2143°
Eccentric anomaly
227.19386°
Mean motion
3.86367 °/min
Orbital period
93.18 mins
BSTAR
0.0019421
Loading maneuver chart data...
Computing Atmospheric mass density...
Loading historical data...
Loading historical data...
Loading historical data...
Loading historical data...
Loading historical data...
Loading historical data...
Loading historical data...

Documentation

Showing up to 5 results
|